Madisonville, KY

1:36 AM CDT on March 28, 2017 (GMT -0500)
Madisonville

Weather History for K2I0 - July, 2013

Change the Weather History Date:

Wednesday, July 31, 2013

  Actual Average (KOWB) Record (KOWB)
Temperature  
Mean Temperature 75 °F -  
Max Temperature 82 °F 88 °F 100 °F (1953)
Min Temperature 69 °F 65 °F 49 °F (1971)
Cooling Degree Days 10    
Growing Degree Days 25 (Base 50)    
Moisture  
Dew Point 72 °F    
Average Humidity 92    
Maximum Humidity 100    
Minimum Humidity 77    
Precipitation  
Precipitation 0.16 in - - ()
Sea Level Pressure  
Sea Level Pressure 30.01 in    
Wind  
Wind Speed 4 mph (East)    
Max Wind Speed 10 mph    
Max Gust Speed -    
Visibility 8 miles    
Events Rain    
Averages and records for this station are not official NWS values.
T = Trace of Precipitation, MM = Missing Value Source: NWS Daily Summary

Daily Weather History Graph

Daily Weather History Graph

Search for Another Location

Airport or City:

Trip Planner

Search our weather history database for the weather conditions in past years. The results will help you decide how hot, cold, wet, or windy it might be!

Date:

Astronomy

Jul. 31, 2013 Rise Set
Actual Time 5:53 AM CDT 7:58 PM CDT
Civil Twilight 5:24 AM CDT 8:26 PM CDT
Nautical Twilight 4:49 AM CDT 9:02 PM CDT
Astronomical Twilight 4:10 AM CDT 9:40 PM CDT
Moon 12:48 AM CDT (7/31) 3:13 PM CDT (7/31)
Length of Visible Light 15h 02m
Length of Day
14h 04m
Waning Crescent, 31% of the Moon is Illuminated
Jul 31
Waning Crescent
Aug 6
New
Aug 14
First Quarter
Aug 20
Full
Aug 28
Last Quarter

Hourly Weather History & Observations

Time (CDT) Temp. Heat Index Dew Point Humidity Pressure Visibility Wind Dir Wind Speed Gust Speed Precip Events Conditions
12:15 AM 71.6 °F - 70.9 °F 98% 30.08 in 10.0 mi SSE 4.6 mph - N/A   Overcast
12:35 AM 71.6 °F - 70.9 °F 98% 30.07 in 10.0 mi South 4.6 mph - N/A   Overcast
12:55 AM 71.6 °F - 70.3 °F 96% 30.07 in 10.0 mi South 5.8 mph - N/A   Overcast
1:15 AM 71.1 °F - 70.2 °F 97% 30.07 in 10.0 mi SSE 3.5 mph - N/A   Drizzle
1:35 AM 71.1 °F - 69.8 °F 96% 30.06 in 10.0 mi South 5.8 mph - N/A   Overcast
1:55 AM 70.7 °F - 69.8 °F 97% 30.06 in 7.0 mi SSE 4.6 mph - N/A Rain Rain
2:15 AM 70.7 °F - 69.8 °F 97% 30.05 in 7.0 mi SE 3.5 mph - N/A   Heavy Drizzle
2:35 AM 70.3 °F - 69.4 °F 97% 30.05 in 10.0 mi South 4.6 mph - 0.01 in Rain Rain
2:55 AM 70.2 °F - 69.6 °F 98% 30.05 in 5.0 mi South 3.5 mph - 0.02 in Rain Rain
3:15 AM 69.8 °F - 69.4 °F 99% 30.05 in 5.0 mi South 3.5 mph - 0.02 in Rain Heavy Rain
3:35 AM 69.8 °F - 69.4 °F 99% 30.05 in 5.0 mi South 4.6 mph - 0.04 in   Heavy Drizzle
3:55 AM 69.8 °F - 69.6 °F 99% 30.04 in 5.0 mi SE 4.6 mph - 0.04 in   Drizzle
4:15 AM 69.8 °F - 69.4 °F 99% 30.04 in 7.0 mi Calm Calm - N/A   Light Drizzle
4:35 AM 69.8 °F - 69.8 °F 100% 30.04 in 7.0 mi SE 3.5 mph - N/A   Overcast
4:55 AM 69.8 °F - 69.6 °F 99% 30.04 in 10.0 mi ESE 5.8 mph - 0.01 in   Overcast
5:15 AM 69.8 °F - 69.4 °F 99% 30.03 in 7.0 mi ESE 4.6 mph - N/A   Overcast
5:35 AM 69.8 °F - 69.4 °F 99% 30.04 in 10.0 mi SE 5.8 mph - N/A   Overcast
5:55 AM 69.8 °F - 69.3 °F 98% 30.04 in 10.0 mi SE 5.8 mph - N/A   Overcast
6:15 AM 69.8 °F - 69.4 °F 99% 30.04 in 7.0 mi SSE 4.6 mph - N/A   Overcast
6:35 AM 69.8 °F - 69.4 °F 99% 30.04 in 7.0 mi SSE 3.5 mph - N/A Rain Rain
6:55 AM 69.8 °F - 69.8 °F 100% 30.04 in 7.0 mi SSE 4.6 mph - N/A   Overcast
7:15 AM 70.2 °F - 69.8 °F 99% 30.04 in 7.0 mi SSE 3.5 mph - N/A Rain Rain
7:35 AM 70.0 °F - 69.8 °F 99% 30.04 in 4.0 mi SSE 4.6 mph - 0.08 in Rain Light Rain
7:55 AM 70.2 °F - 70.0 °F 99% 30.04 in 5.0 mi SSE 3.5 mph - 0.09 in   Overcast
8:15 AM 70.3 °F - 70.2 °F 99% 30.04 in 5.0 mi Calm Calm - N/A   Light Drizzle
8:35 AM 71.2 °F - 70.7 °F 98% 30.04 in 10.0 mi Calm Calm - N/A   Overcast
8:55 AM 71.6 °F - 70.9 °F 98% 30.04 in 10.0 mi South 3.5 mph - N/A   Overcast
9:15 AM 72.9 °F - 71.8 °F 96% 30.04 in 10.0 mi SSE 3.5 mph - N/A   Overcast
9:35 AM 73.0 °F - 71.6 °F 95% 30.03 in 10.0 mi South 3.5 mph - N/A   Overcast
9:55 AM 73.6 °F - 72.1 °F 95% 30.03 in 10.0 mi Calm Calm - N/A   Overcast
10:35 AM 74.8 °F - 72.7 °F 93% 30.02 in 10.0 mi Calm Calm - N/A   Overcast
10:55 AM 76.5 °F - 73.4 °F 90% 30.02 in 10.0 mi Calm Calm - N/A   Overcast
11:15 AM 77.2 °F - 73.6 °F 89% 30.02 in 10.0 mi Calm Calm - N/A   Overcast
11:35 AM 77.9 °F - 74.3 °F 89% 30.02 in 10.0 mi WNW 3.5 mph - N/A   Overcast
11:55 AM 77.5 °F - 73.9 °F 89% 30.02 in 10.0 mi North 4.6 mph - N/A   Overcast
12:15 PM 77.9 °F - 73.8 °F 87% 30.02 in 10.0 mi NNW 5.8 mph - N/A   Overcast
12:35 PM 77.9 °F - 74.5 °F 89% 30.02 in 10.0 mi North 8.1 mph - N/A   Overcast
12:55 PM 78.4 °F - 73.8 °F 85% 30.02 in 10.0 mi North 3.5 mph - N/A   Overcast
1:15 PM 79.5 °F - 74.3 °F 84% 30.01 in 10.0 mi North 5.8 mph - N/A   Overcast
1:35 PM 80.8 °F 86.1 °F 74.3 °F 81% 30.01 in 10.0 mi NNE 6.9 mph - N/A   Overcast
1:55 PM 80.6 °F 85.9 °F 74.7 °F 82% 30.00 in 10.0 mi NE 4.6 mph - N/A   Overcast
2:15 PM 80.6 °F 85.7 °F 74.3 °F 81% 29.99 in 10.0 mi North 8.1 mph - N/A   Overcast
2:35 PM 80.8 °F 85.8 °F 73.6 °F 79% 29.98 in 10.0 mi North 8.1 mph - N/A   Mostly Cloudy
2:55 PM 80.4 °F 85.3 °F 73.9 °F 81% 29.98 in 10.0 mi NNE 5.8 mph - N/A   Overcast
3:15 PM 80.6 °F 85.5 °F 73.8 °F 80% 29.98 in 10.0 mi North 8.1 mph - N/A   Overcast
3:35 PM 81.5 °F 87.2 °F 74.1 °F 78% 29.98 in 10.0 mi North 9.2 mph - N/A   Overcast
3:55 PM 80.8 °F 85.9 °F 73.9 °F 80% 29.98 in 10.0 mi NNE 10.4 mph - N/A   Mostly Cloudy
4:15 PM 80.8 °F 85.6 °F 73.2 °F 78% 29.97 in 10.0 mi North 10.4 mph - N/A   Mostly Cloudy
4:35 PM 80.8 °F 85.4 °F 73.0 °F 77% 29.97 in 10.0 mi North 10.4 mph - N/A   Overcast
4:55 PM 79.3 °F - 72.3 °F 79% 29.97 in 10.0 mi North 10.4 mph - N/A   Overcast
5:15 PM 78.8 °F - 72.0 °F 79% 29.97 in 10.0 mi NNW 8.1 mph - N/A   Overcast
5:35 PM 78.6 °F - 72.5 °F 81% 29.97 in 10.0 mi NNW 6.9 mph - N/A   Overcast
5:55 PM 79.7 °F - 72.3 °F 78% 29.97 in 10.0 mi NNE 5.8 mph - N/A   Mostly Cloudy
6:15 PM 79.5 °F - 72.1 °F 78% 29.97 in 7.0 mi ENE 4.6 mph - N/A   Clear
6:35 PM 79.0 °F - 72.5 °F 80% 29.98 in 7.0 mi ENE 3.5 mph - N/A   Clear
6:55 PM 78.1 °F - 71.8 °F 81% 29.98 in 7.0 mi NE 3.5 mph - N/A   Clear
7:15 PM 77.0 °F - 72.1 °F 85% 29.98 in 7.0 mi Calm Calm - N/A   Clear
7:35 PM 77.0 °F - 72.7 °F 86% 29.98 in 7.0 mi Calm Calm - N/A   Clear
7:55 PM 75.9 °F - 72.5 °F 89% 29.98 in 5.0 mi Calm Calm - N/A   Clear
8:15 PM 73.9 °F - 72.7 °F 96% 29.98 in 4.0 mi Calm Calm - N/A   Clear
8:35 PM 73.6 °F - 73.0 °F 98% 29.99 in 4.0 mi Calm Calm - N/A   Clear
8:55 PM 73.6 °F - 72.7 °F 97% 29.99 in 5.0 mi Calm Calm - N/A   Clear
9:15 PM 72.9 °F - 72.5 °F 99% 29.99 in 4.0 mi Calm Calm - N/A   Clear
9:35 PM 72.7 °F - 71.8 °F 97% 29.99 in 5.0 mi Calm Calm - N/A   Clear
9:55 PM 72.1 °F - 72.0 °F 99% 29.99 in 2.5 mi Calm Calm - N/A   Clear
10:15 PM 71.8 °F - 71.8 °F 100% 29.99 in 2.5 mi Calm Calm - N/A   Clear
10:35 PM 70.5 °F - 70.5 °F 100% 29.99 in 1.0 mi NNW 3.5 mph - N/A   Mostly Cloudy
10:55 PM 70.9 °F - 70.9 °F 100% 29.99 in 1.2 mi Calm Calm - N/A   Mist
11:15 PM 71.4 °F - 71.4 °F 100% 29.99 in 2.5 mi Calm Calm - N/A   Clear
11:35 PM 71.1 °F - 71.1 °F 100% 29.99 in 2.5 mi Calm Calm - N/A   Clear
11:55 PM 69.1 °F - 69.1 °F 100% 30.00 in 2.0 mi Calm Calm - N/A   Clear